Regional Weather Roundup
Issued by NWS Newport/Morehead, NC

Current Version | Previous Version | Text Only | Print | Product List | Glossary On
Versions: 1 2 3 4 5 6 7 8 9 10 11 12 13 14 15 16 17 18 19 20 21 22 23 24 25 26 27 28 29 30 31 32 33 34 35 36 37 38 39 40 41 42 43 44 45 46 47 48 49 50
222 ASUS42 KMHX 211226 RWRMHX WEATHER ROUNDUP FOR EASTERN NORTH CAROLINA NATIONAL WEATHER SERVICE NEWPORT/MOREHEAD CITY NC 800 AM EDT MON AUG 21 2017 NOTE: "FAIR" INDICATES FEW OR NO CLOUDS BELOW 12,000 FEET WITH NO SIGNIFICANT WEATHER AND/OR OBSTRUCTIONS TO VISIBILITY NCZ015>017-031-032-045>047-102-103-211300- NORTH COAST CITY SKY/WX TMP DP RH WIND PRES REMARKS EDENTON FOG 77 77 100 CALM 30.23R VSB 3/4 ELIZABETH CITY PTSUNNY 79 78 97 E3 30.23R KITTY HAWK CLOUDY 77 77 100 CALM 30.21R MANTEO CLOUDY 78 75 91 E5 30.22S $$ NCZ045>047-081-094-103-104-211300- CENTRAL COAST CITY SKY/WX TMP DP RH WIND PRES REMARKS FRISCO CLOUDY 80 80 100 NE3 30.20R $$ NCZ095-097-098-100-101-211300- SOUTHERN COAST CITY SKY/WX TMP DP RH WIND PRES REMARKS BEAUFORT CLOUDY 80 80 100 NE5 30.20R CEDAR ISLAND NOT AVBL JACKSONVILLE CLOUDY 77 77 100 NE7 30.20R FOG PINEY ISLAND CLOUDY N/A N/A N/A NE6 30.20R WILMINGTON PTSUNNY 78 76 93 N5 30.19R $$ NCZ011>013-027>030-043-044-078>080-089-090>093-098-211300- COASTAL PLAIN CITY SKY/WX TMP DP RH WIND PRES REMARKS AHOSKIE DRZL/FOG 73 73 98 CALM 30.23 VSB<1/4 CLINTON CLOUDY 74 74 100 CALM 30.21S VSB 3/4 ELIZABETHTOWN NOT AVBL GOLDSBORO FOG 75 75 100 E5 30.21R VSB 1/8 GREENVILLE FOG 73 73 100 CALM 30.24R VSB 1/4 HAVELOCK CLOUDY 80 77 90 NE7 30.22R KENANSVILLE PTSUNNY 75 75 100 CALM 30.22R FOG KINSTON NOT AVBL NEW BERN PTSUNNY 77 77 100 NE6 30.22R FOG RICHLANDS FOG 74 74 100 N7 30.21S VSB 1/4 ROCKY MOUNT FOG 72 72 100 CALM 30.22R VSB 1/4 WASHINGTON FOG 74 73 98 E3 30.23R VSB 1/4 WHITEVILLE PTSUNNY 76 75 97 CALM 30.19S FOG $$ AMZ130-135-150-152-154-156-158-170-250-252-270-ANZ085-086-088-633-658-670-211300- MARINE OBSERVATIONS STATION/POSITION TIME TEMP WIND PRES WAVE SWELL AIR SEA DIR/SP/G HT/PER HT/PER (UTC) (F) (DEG/KT/KT) (MB) (FT/S) (FT/S) CHESAPEAKE LIGHT NOT AVBL 64 E VA BEACH 1150 79 79 80/ 8/ 10 1023.5 2/ 8 2/ 8 DUCK 1200 79 77 100/ 6/ 8 1023.0 2 E DUCK 1200 79 N/A 2/ 7 OREGON INLET 1200 78 80 60/ 5/ 7 1022.9 13E OREGON INLT 1148 79 N/A 2/ 7 2/ 7 HATTERAS CG 1200 80 79 60/ 5/ 6 1022.7 DIAMOND BUOY 1150 83 85 40/ 8/ 10 1022.3 2/ 8 2/ 8 CAPE LOOKOUT 1200 82 50/ 7/ 8 1022.3 BEAUFORT LAB 1200 80 81 30/ 4/ 6 1022.2 30 SE NEW RVR IN 1208 81 84 90/ 6/ 8 1022.4 30 SE NEW RVR IN 1143 84 N/A 2/ 8 27 SE WRIGHTSVLE 1208 83 84 50/ 2/ 4 1022.1 5 SE WRIGHTSVLE 1208 82 83 10/ 6/ 8 1021.8 225 S CAPE HAT 1150 83 84 160/ 4/ 6 1022.4 3/ 9 3/ 9 41 SE CHARLESTON 1210 82 85 110/ 4/ 6 1021.1 $$

USA.gov is the U.S. government's official web portal to all federal, state and local government web resources and services.